Powrót do katalogu

OPS 3899

AktywnyMilitariaPO
NORAD 14139·PAYLOAD·🇺🇸 United States

Wystrzelony Jun 20, 1983 z Vandenberg Space Force Base

Loading…

Następne Przeloty (najbliższe 24 godziny)

TLE

ŚwieżeSource: Space-Track

Epoka: Sep 14, 2026, 13:32 UTC

1 14139U 83060C   26257.56453181 -.00000245  00000-0 -81630-3 0  9994
2 14139  96.6608 115.8365 0001631 119.1377 240.9898 12.93991149347398

Śledź OPS 3899 w czasie rzeczywistym z AllMySat

Download on the App Store